| time (UTC) | temp F | wind direction | speed knots | gust knots | rain 1hr in | rain 24hr in | rain mn in | humidity % | barometer mb |
| 20260507203113 | 51 | 93 | 1.7 | 1.7 | 0.00 | 0.01 | 0.01 | 86 | 1018.2 |
| 20260507202113 | 51 | 105 | 1.7 | 1.7 | 0.00 | 0.01 | 0.01 | 87 | 1018.1 |
| 20260507201115 | 51 | 97 | 1.7 | 2.6 | 0.00 | 0.01 | 0.01 | 85 | 1018.1 |
| 20260507200109 | 51 | 109 | 1.7 | 2.6 | 0.00 | 0.01 | 0.01 | 86 | 1018.0 |
| 20260507195110 | 51 | 109 | 1.7 | 2.6 | 0.00 | 0.01 | 0.01 | 88 | 1018.0 |
| 20260507193112 | 51 | 94 | 1.7 | 2.6 | 0.00 | 0.01 | 0.01 | 88 | 1017.7 |
| 20260507192106 | 52 | 91 | 1.7 | 2.6 | 0.00 | 0.01 | 0.01 | 86 | 1017.7 |
| 20260507191111 | 52 | 109 | 1.7 | 2.6 | 0.00 | 0.01 | 0.01 | 84 | 1017.6 |
| 20260507190107 | 52 | 89 | 1.7 | 3.5 | 0.00 | 0.01 | 0.01 | 83 | 1017.6 |
| 20260507185109 | 52 | 80 | 3.5 | 4.3 | 0.00 | 0.01 | 0.01 | 84 | 1017.6 |
| 20260507184108 | 53 | 80 | 3.5 | 4.3 | 0.00 | 0.01 | 0.01 | 81 | 1017.4 |
| 20260507182112 | 53 | 88 | 2.6 | 3.5 | 0.00 | 0.01 | 0.01 | 79 | 1017.4 |
| 20260507181107 | 54 | 88 | 1.7 | 2.6 | 0.00 | 0.01 | 0.01 | 77 | 1017.4 |
| 20260507180112 | 54 | 90 | 1.7 | 2.6 | 0.00 | 0.01 | 0.01 | 76 | 1017.3 |
| 20260507175109 | 55 | 70 | 1.7 | 2.6 | 0.00 | 0.01 | 0.01 | 73 | 1017.2 |
| 20260507174110 | 55 | 40 | 2.6 | 2.6 | 0.00 | 0.01 | 0.01 | 72 | 1017.2 |
| 20260507173109 | 55 | 52 | 1.7 | 2.6 | 0.00 | 0.01 | 0.01 | 70 | 1017.1 |
| 20260507172108 | 55 | 89 | 1.7 | 2.6 | 0.00 | 0.01 | 0.01 | 68 | 1017.2 |
| 20260507171105 | 55 | 43 | 1.7 | 2.6 | 0.00 | 0.01 | 0.01 | 69 | 1017.1 |
| 20260507170112 | 55 | 63 | 1.7 | 2.6 | 0.00 | 0.01 | 0.01 | 66 | 1017.1 |
| 20260507165108 | 55 | 39 | 1.7 | 2.6 | 0.00 | 0.01 | 0.01 | 64 | 1017.1 |
| 20260507164110 | 55 | 42 | 2.6 | 4.3 | 0.00 | 0.01 | 0.01 | 65 | 1017.0 |
| 20260507163102 | 55 | 51 | 2.6 | 3.5 | 0.00 | 0.01 | 0.01 | 66 | 1017.0 |
| 20260507162102 | 55 | 54 | 1.7 | 3.5 | 0.00 | 0.01 | 0.01 | 67 | 1017.0 |
| 20260507161105 | 55 | 112 | 1.7 | 3.5 | 0.00 | 0.01 | 0.01 | 64 | 1017.1 |
| 20260507155104 | 55 | 81 | 2.6 | 3.5 | 0.00 | 0.01 | 0.01 | 64 | 1017.1 |
| 20260507154102 | 55 | 114 | 1.7 | 4.3 | 0.00 | 0.01 | 0.01 | 65 | 1017.1 |
| 20260507153101 | 55 | 99 | 2.6 | 4.3 | 0.00 | 0.01 | 0.01 | 65 | 1017.1 |
| 20260507152101 | 55 | 94 | 2.6 | 4.3 | 0.00 | 0.01 | 0.01 | 64 | 1017.1 |
| 20260507151103 | 55 | 109 | 3.5 | 4.3 | 0.00 | 0.01 | 0.01 | 65 | 1017.1 |
| 20260507150058 | 55 | 71 | 3.5 | 6.1 | 0.00 | 0.01 | 0.01 | 66 | 1017.1 |
| 20260507144059 | 55 | 60 | 2.6 | 5.2 | 0.00 | 0.01 | 0.01 | 66 | 1017.1 |
| 20260507142058 | 56 | 47 | 3.5 | 5.2 | 0.00 | 0.01 | 0.01 | 68 | 1017.1 |
| 20260507141059 | 55 | 21 | 3.5 | 6.1 | 0.00 | 0.01 | 0.01 | 67 | 1017.2 |
| 20260507140106 | 55 | 70 | 3.5 | 4.3 | 0.00 | 0.01 | 0.01 | 68 | 1017.2 |
| 20260507135100 | 55 | 42 | 3.5 | 6.1 | 0.00 | 0.01 | 0.01 | 68 | 1017.3 |
| 20260507134059 | 55 | 15 | 2.6 | 5.2 | 0.00 | 0.01 | 0.01 | 68 | 1017.3 |
| 20260507133101 | 55 | 6 | 3.5 | 5.2 | 0.00 | 0.01 | 0.01 | 68 | 1017.3 |
| 20260507132059 | 55 | 326 | 2.6 | 4.3 | 0.00 | 0.01 | 0.01 | 68 | 1017.3 |
| 20260507131058 | 55 | 61 | 2.6 | 4.3 | 0.00 | 0.01 | 0.01 | 67 | 1017.3 |
| 20260507130100 | 55 | 70 | 2.6 | 5.2 | 0.00 | 0.01 | 0.01 | 67 | 1017.3 |
| 20260507125058 | 55 | 21 | 2.6 | 4.3 | 0.00 | 0.01 | 0.01 | 67 | 1017.4 |
| 20260507124101 | 54 | 33 | 3.5 | 5.2 | 0.00 | 0.01 | 0.01 | 66 | 1017.3 |
| 20260507123100 | 55 | 12 | 2.6 | 4.3 | 0.00 | 0.01 | 0.01 | 71 | 1017.3 |
| 20260507122059 | 55 | 321 | 1.7 | 2.6 | 0.00 | 0.01 | 0.01 | 72 | 1017.3 |
| 20260507121059 | 54 | 335 | 1.7 | 2.6 | 0.00 | 0.01 | 0.01 | 70 | 1017.3 |
| 20260507120058 | 54 | 42 | 0.9 | 1.7 | 0.00 | 0.01 | 0.01 | 71 | 1017.3 |
| 20260507115100 | 54 | 64 | 0.9 | 2.6 | 0.00 | 0.01 | 0.01 | 70 | 1017.3 |
| 20260507114100 | 54 | 46 | 1.7 | 3.5 | 0.00 | 0.01 | 0.01 | 71 | 1017.3 |
| 20260507112103 | 54 | 303 | 2.6 | 4.3 | 0.00 | 0.01 | 0.01 | 71 | 1017.2 |
| 20260507111102 | 54 | 248 | 1.7 | 3.5 | 0.00 | 0.01 | 0.01 | 71 | 1017.3 |
| 20260507105059 | 53 | 46 | 2.6 | 4.3 | 0.00 | 0.01 | 0.01 | 70 | 1017.4 |
| 20260507104059 | 53 | 350 | 1.7 | 4.3 | 0.00 | 0.01 | 0.01 | 73 | 1017.4 |
| 20260507103059 | 53 | 332 | 1.7 | 4.3 | 0.00 | 0.01 | 0.01 | 74 | 1017.5 |
| 20260507102059 | 52 | 18 | 1.7 | 3.5 | 0.00 | 0.01 | 0.01 | 75 | 1017.5 |
| 20260507095057 | 52 | 301 | 2.6 | 7.0 | 0.00 | 0.02 | 0.01 | 77 | 1017.4 |
| 20260507094057 | 52 | 26 | 4.3 | 8.7 | 0.00 | 0.02 | 0.01 | 79 | 1017.3 |
| 20260507093058 | 51 | 16 | 3.5 | 5.2 | 0.00 | 0.02 | 0.01 | 76 | 1017.2 |
| 20260507092059 | 51 | 3 | 3.5 | 6.1 | 0.00 | 0.03 | 0.01 | 77 | 1017.2 |
| 20260507084100 | 51 | 33 | 2.6 | 5.2 | 0.00 | 0.04 | 0.01 | 80 | 1017.1 |
| 20260507083102 | 51 | 36 | 4.3 | 7.0 | 0.00 | 0.04 | 0.01 | 81 | 1017.1 |
| 20260507082058 | 50 | 22 | 3.5 | 5.2 | 0.00 | 0.05 | 0.01 | 82 | 1017.1 |
| 20260507081100 | 50 | 352 | 1.7 | 3.5 | 0.00 | 0.05 | 0.01 | 82 | 1017.0 |
| 20260507075101 | 49 | 7 | 2.6 | 3.5 | 0.00 | 0.05 | 0.01 | 83 | 1017.0 |
| 20260507074101 | 49 | 336 | 2.6 | 4.3 | 0.00 | 0.05 | 0.01 | 84 | 1017.0 |
| 20260507072057 | 48 | 340 | 2.6 | 4.3 | 0.00 | 0.06 | 0.01 | 87 | 1016.9 |
| 20260507071101 | 48 | 352 | 2.6 | 4.3 | 0.00 | 0.06 | 0.01 | 88 | 1016.9 |
| 20260507070057 | 48 | 349 | 2.6 | 4.3 | 0.00 | 0.06 | 0.01 | 88 | 1016.9 |
| 20260507064058 | 47 | 329 | 1.7 | 2.6 | 0.00 | 0.06 | 0.01 | 88 | 1016.8 |
| 20260507063053 | 47 | 356 | 2.6 | 2.6 | 0.00 | 0.06 | 0.01 | 89 | 1016.7 |
| 20260507062057 | 47 | 347 | 1.7 | 2.6 | 0.00 | 0.07 | 0.01 | 90 | 1016.6 |
| 20260507061057 | 47 | 354 | 0.9 | 1.7 | 0.00 | 0.09 | 0.01 | 90 | 1016.5 |
| 20260507060056 | 46 | 356 | 1.7 | 1.7 | 0.00 | 0.09 | 0.01 | 91 | 1016.5 |
| 20260507055053 | 46 | 350 | 1.7 | 1.7 | 0.00 | 0.11 | 0.01 | 91 | 1016.4 |
| 20260507054056 | 46 | 356 | 1.7 | 2.6 | 0.00 | 0.13 | 0.01 | 91 | 1016.3 |
| 20260507052056 | 45 | 354 | 1.7 | 1.7 | 0.00 | 0.14 | 0.01 | 94 | 1016.2 |
| 20260507051059 | 45 | 343 | 0.9 | 1.7 | 0.00 | 0.15 | 0.01 | 96 | 1016.1 |
| 20260507050055 | 45 | 326 | 0.0 | 0.9 | 0.00 | 0.16 | 0.01 | 97 | 1016.0 |
| 20260507045056 | 45 | 330 | 0.0 | 0.9 | 0.00 | 0.17 | 0.01 | 97 | 1015.9 |
| 20260507044057 | 45 | 340 | 0.9 | 1.7 | 0.00 | 0.17 | 0.01 | 98 | 1015.9 |
| 20260507043056 | 45 | 354 | 0.9 | 0.9 | 0.00 | 0.18 | 0.01 | 98 | 1015.8 |
| 20260507042100 | 45 | 350 | 0.0 | 0.9 | 0.00 | 0.19 | 0.01 | 97 | 1015.7 |
| 20260507041057 | 45 | 350 | 0.9 | 0.9 | 0.00 | 0.20 | 0.01 | 97 | 1015.6 |
| 20260507040058 | 45 | 342 | 0.0 | 0.0 | 0.00 | 0.20 | 0.01 | 96 | 1015.5 |
| 20260507035058 | 45 | 19 | 0.9 | 0.9 | 0.00 | 0.21 | 0.01 | 96 | 1015.4 |
| 20260507034056 | 45 | 123 | 0.0 | 0.9 | 0.00 | 0.21 | 0.01 | 96 | 1015.4 |
| 20260507033055 | 45 | 290 | 0.0 | 0.0 | 0.00 | 0.21 | 0.01 | 95 | 1015.4 |
| 20260507032057 | 45 | 335 | 0.9 | 1.7 | 0.00 | 0.22 | 0.01 | 95 | 1015.4 |
| 20260507031056 | 45 | 3 | 1.7 | 1.7 | 0.00 | 0.22 | 0.01 | 95 | 1015.4 |
| 20260507030056 | 45 | 358 | 1.7 | 2.6 | 0.01 | 0.23 | 0.01 | 96 | 1015.3 |
| 20260507024055 | 45 | 356 | 1.7 | 3.5 | 0.01 | 0.24 | 0.01 | 96 | 1015.2 |
| 20260507023054 | 45 | 351 | 1.7 | 3.5 | 0.01 | 0.24 | 0.01 | 96 | 1015.2 |
| 20260507021057 | 45 | 9 | 2.6 | 3.5 | 0.01 | 0.24 | 0.01 | 96 | 1015.0 |
| 20260507015055 | 45 | 4 | 3.5 | 6.1 | 0.00 | 0.24 | 0.00 | 96 | 1014.9 |
| 20260507014057 | 45 | 359 | 3.5 | 5.2 | 0.00 | 0.24 | 0.00 | 96 | 1014.9 |
| 20260507013055 | 45 | 2 | 3.5 | 5.2 | 0.00 | 0.24 | 0.00 | 96 | 1014.9 |
| 20260507012054 | 45 | 359 | 2.6 | 4.3 | 0.00 | 0.25 | 0.00 | 97 | 1014.9 |
| 20260507010100 | 45 | 1 | 2.6 | 4.3 | 0.00 | 0.26 | 0.00 | 97 | 1014.8 |
| 20260507005058 | 45 | 354 | 2.6 | 3.5 | 0.00 | 0.26 | 0.00 | 97 | 1014.8 |
| 20260507004058 | 45 | 343 | 1.7 | 3.5 | 0.00 | 0.27 | 0.00 | 97 | 1014.8 |
| 20260507003054 | 45 | 339 | 1.7 | 2.6 | 0.00 | 0.27 | 0.00 | 97 | 1014.7 |
| 20260507002056 | 45 | 342 | 1.7 | 2.6 | 0.00 | 0.28 | 0.00 | 97 | 1014.7 |
| 20260507001055 | 45 | 341 | 1.7 | 3.5 | 0.00 | 0.28 | 0.00 | 97 | 1014.7 |
| 20260507000059 | 45 | 341 | 1.7 | 1.7 | 0.00 | 0.28 | 0.00 | 96 | 1014.7 |
| 20260506235105 | 45 | 342 | 1.7 | 3.5 | 0.00 | 0.29 | 0.00 | 96 | 1014.6 |
| 20260506234104 | 45 | 346 | 1.7 | 3.5 | 0.00 | 0.29 | 0.00 | 96 | 1014.5 |
| 20260506233104 | 45 | 344 | 1.7 | 2.6 | 0.00 | 0.29 | 0.00 | 95 | 1014.5 |
| 20260506231103 | 45 | 341 | 2.6 | 3.5 | 0.00 | 0.31 | 0.00 | 95 | 1014.4 |
| 20260506230105 | 45 | 341 | 2.6 | 2.6 | 0.00 | 0.31 | 0.00 | 95 | 1014.3 |
| 20260506225103 | 45 | 350 | 2.6 | 3.5 | 0.00 | 0.31 | 0.00 | 95 | 1014.2 |
| 20260506224105 | 44 | 343 | 2.6 | 3.5 | 0.00 | 0.31 | 0.00 | 94 | 1014.2 |
| 20260506223103 | 44 | 339 | 2.6 | 3.5 | 0.00 | 0.32 | 0.00 | 95 | 1014.1 |
| 20260506222104 | 44 | 335 | 2.6 | 3.5 | 0.00 | 0.32 | 0.00 | 95 | 1014.0 |
| 20260506221104 | 44 | 331 | 1.7 | 2.6 | 0.00 | 0.33 | 0.00 | 96 | 1014.0 |
| 20260506220115 | 43 | 329 | 1.7 | 2.6 | 0.00 | 0.34 | 0.00 | 96 | 1014.0 |
| 20260506214110 | 44 | 326 | 1.7 | 1.7 | 0.00 | 0.35 | 0.34 | 94 | 1013.8 |
| 20260506213107 | 44 | 335 | 2.6 | 3.5 | 0.00 | 0.35 | 0.34 | 93 | 1013.7 |
| 20260506212108 | 44 | 336 | 2.6 | 3.5 | 0.00 | 0.36 | 0.34 | 92 | 1013.5 |
| 20260506211108 | 45 | 337 | 1.7 | 4.3 | 0.00 | 0.37 | 0.34 | 91 | 1013.5 |
| 20260506210109 | 46 | 342 | 2.6 | 3.5 | 0.00 | 0.38 | 0.34 | 88 | 1013.3 |
| 20260506204106 | 47 | 348 | 3.5 | 6.1 | 0.00 | 0.39 | 0.34 | 86 | 1013.0 |